{"data":{"norad_id":67572,"epoch":"2026-09-19T21:11:54.642912Z","epoch_age_seconds":125571,"freshness":"FRESH","line1":"1 67572U 26016M   26262.88327133  .00020195  00000+0  62599-3 0  9995","line2":"2 67572  97.2862 321.5207 0000554 128.5031 231.6262 15.33455367 36628","mean_motion":15.33455367,"eccentricity":5.54e-5,"inclination_deg":97.2862,"raan_deg":321.5207,"arg_perigee_deg":128.5031,"mean_anomaly_deg":231.6262,"bstar":0.00062599,"rev_number":3662,"period_min":93.905569799346,"perigee_km":465.13319158084,"apogee_km":465.89146792658,"semimajor_km":6843.6493297537,"source":"CELESTRAK","updated_at":"2026-09-20T09:00:43.576260Z"}}